User: anonymous   Login
Location: *
(34.8620°S, 39.3380°E)
Time: 08:16:23
(UTC+00:00)
Language:

Cosmos 1300 - Orbit

View from above orbital plane
View from above orbital plane
View from above satellite
View from above satellite

Ground track
Ground track

The orbit data is extracted from the following two-line orbital elements,

1 12785U 81082A   22275.62179522  .00005034  00000-0  23191-3 0  9995
2 12785  82.5020 318.7592 0002154  59.8198  56.9266 15.20072981244884
Epoch (UTC): 02 October 2022 14:55:23
Eccentricity: 0.0002154
inclination: 82.5020°
perigee height: 504 km
apogee height: 507 km
right ascension of ascending node: 318.7592°
argument of perigee: 59.8198°
revolutions per day: 15.20072981
mean anomaly at epoch: 56.9266°
orbit number at epoch: 24488

The dashed part of the orbit path shows where the satellite is in the earth's shadow,  

DLR